Location: Newark
(52.8300°N, 8.0000°E)
Time: 13:00:39
(UTC+00:00)

STARLINK-1126 - Pass Details

Date: 03 February 2020
Orbit: 349 x 353 km, 53.0° (Epoch: 28 February)

Event Time Altitude Azimuth Distance (km) Brightness Sun altitude
Rises 16:45:23 0° 282° (WNW) 2,155 7.8 -4.9°
Reaches altitude 10° 16:47:45 10° 262° (W) 1,310 7.2 -5.2°
Maximum altitude 16:49:52 18° 216° (SW) 933 5.7 -5.5°
Drops below altitude 10° 16:51:58 10° 169° (S) 1,304 5.7 -5.8°
Sets 16:54:20 0° 150° (SSE) 2,141 6.5 -6.2°
